RH
4 4 3 3 3 2 5 5 10 51 34 18 12 16 25 27 32 36 25 25 28 38 43 51 58 76 98 89 73 75 84 98 100 100 97 99 91 99 100 100 94 86 68 54
5 4 3 3 3 3 4 5 5 33 55 26 19 19 22 23 30 37 31 26 27 33 34 42 51 51 63 84 97 98 95 91 100 97 87 90 85 96 100 94 96 94 87 62
5 4 3 3 3 3 4 7 4 8 45 38 26 23 26 26 34 33 30 27 34 41 51 50 54 53 58 62 64 69 77 82 86 91 95 98 98 100 100 96 94 93 89 87
5 4 3 3 3 4 6 12 9 9 30 58 36 23 23 22 26 30 30 36 38 47 54 55 60 63 61 65 73 75 76 76 82 87 85 84 82 78 76 85 99 98 100 94
5 4 3 3 3 4 7 7 10 13 30 70 38 32 22 21 22 31 40 45 40 40 45 46 39 61 67 74 78 89 94 85 86 87 79 72 69 67 63 60 73 82 76 72
6 4 3 3 3 3 7 12 14 26 17 100 65 34 50 32 38 43 43 42 44 52 58 60 51 39 68 72 78 81 87 80 59 52 45 43 47 48 54 55 53 50 52 51
7 4 3 3 3 4 4 11 20 42 36 48 99 39 39 53 46 61 54 38 34 37 51 62 70 66 80 78 61 52 42 51 60 66 57 52 53 51 50 45 46 45 47 54
8 4 3 3 3 3 6 17 24 34 75 44 76 99 60 43 42 58 61 55 35 31 30 42 58 83 89 85 76 55 34 34 33 31 35 50 42 37 38 45 36 39 41 44
9 4 3 3 3 3 8 31 57 60 74 80 69 97 100 55 30 34 43 41 36 31 28 30 41 63 83 74 60 50 38 34 34 35 36 38 44 46 44 43 47 40 38 36
9 5 3 3 3 4 15 41 61 69 79 90 64 88 100 100 77 26 30 30 27 28 26 30 37 47 58 69 77 74 61 53 45 35 33 35 42 44 48 42 40 38 38 38
11 4 3 2 3 4 20 54 66 79 74 89 99 52 86 96 99 57 31 29 26 25 26 26 24 24 28 39 53 60 65 68 67 58 51 49 43 45 46 45 46 53 41 41
13 5 3 3 2 6 26 61 76 85 74 88 99 98 83 93 94 99 57 28 26 25 25 26 29 30 30 25 23 27 47 50 52 56 65 67 60 52 50 45 42 39 36 36
16 8 3 4 3 9 29 68 82 88 88 100 100 100 100 98 100 100 96 65 90 82 93 73 85 78 63 56 63 47 24 26 38 43 44 50 66 70 62 56 52 47 44 40
17 9 3 3 3 14 48 73 85 87 97 100 100 100 100 100 100 100 100 100 100 100 100 100 99 100 96 95 94 89 91 47 29 23 29 37 40 44 58 66 62 58 53 51
19 11 4 3 4 40 61 78 89 85 93 98 100 100 100 99 100 100 100 100 100 100 100 100 100 98 95 88 86 70 86 94 95 51 26 20 21 30 35 37 42 52 55 53
8 5 3 3 7 67 78 88 90 90 99 98 100 100 100 100 100 100 100 96 89 77 50 45 35 27 33 38 51 58 82 85 90 91 71 44 26 20 23 31 34 32 36 43
5 4 3 3 6 52 75 89 100 100 99 99 96 100 100 100 99 88 70 52 40 29 29 22 19 15 18 11 7 12 20 52 78 85 83 85 58 33 23 23 30 34 30 31
7 4 4 4 8 21 71 92 100 100 98 100 93 94 88 89 79 76 60 50 36 31 36 31 36 43 25 10 6 8 17 19 44 81 100 98 89 58 34 24 31 35 35 36
11 6 5 6 5 18 38 80 100 100 100 100 98 99 100 84 78 80 72 71 53 34 33 41 36 64 39 12 3 6 95 100 83 77 97 100 100 73 38 28 28 32 33 40
14 11 12 7 7 9 38 66 90 100 100 100 98 100 100 100 99 93 75 70 58 42 27 45 59 94 90 72 80 100 99 91 100 100 100 100 100 87 39 34 33 32 29 28
19 17 16 12 9 8 12 48 96 99 99 100 100 100 100 98 99 94 85 75 70 63 43 51 78 74 100 93 47 60 98 98 85 90 95 100 100 93 46 41 37 36 32 30
24 22 19 15 13 9 9 10 16 55 85 96 99 99 100 100 100 100 90 90 94 73 76 76 91 100 100 100 97 78 73 95 95 100 100 100 100 93 64 44 39 34 28 25
35 27 22 18 16 15 11 10 10 13 14 36 75 92 99 99 100 100 98 87 86 94 100 100 100 100 100 100 100 100 98 79 100 100 100 100 92 70 56 46 40 37 40 39
48 40 30 25 26 24 21 16 15 15 15 13 17 42 79 91 97 100 97 99 98 99 100 100 100 100 100 100 100 100 100 97 94 100 100 100 98 84 70 62 60 59 57 57
56 49 40 37 35 35 31 27 26 24 20 18 11 22 41 73 95 100 100 100 100 100 98 100 97 100 100 100 100 100 100 100 100 100 100 100 100 100 90 86 82 78 74 77
70 62 56 56 54 46 43 39 38 31 30 22 16 11 29 37 83 100 100 100 100 100 100 99 98 100 100 100 100 100 100 100 100 100 100 100 100 99 98 92 82 76 71 64
94 76 75 79 74 62 53 52 46 40 38 35 30 14 10 32 39 91 100 100 100 100 100 100 100 99 100 100 100 100 100 100 100 100 100 100 100 97 90 96 96 98 99 100
Wind_Speed
55 58 63 66 59 35 25 19 13 14 13 13 17 16 16 15 11 4 1 0 2 6 7 6 6 5 9 8 9 11 16 18 16 18 13 20 21 19 25 32 31 30 30 32
53 56 60 65 65 38 25 19 12 15 17 15 17 16 17 16 14 10 6 4 4 4 4 5 6 8 10 12 12 11 13 16 20 19 15 15 14 14 17 18 24 30 31 31
53 55 59 63 69 54 26 22 17 14 19 19 19 18 17 15 12 11 9 7 6 6 6 5 6 8 11 14 16 18 17 16 17 17 16 20 19 18 15 20 21 18 20 21
51 53 59 65 68 65 31 20 20 15 19 23 20 20 20 18 16 14 11 9 8 7 7 5 6 8 10 14 15 16 18 19 20 19 17 17 16 16 15 14 16 22 17 26
50 54 56 66 67 62 38 25 21 17 20 25 26 24 22 20 20 16 13 11 11 11 11 10 10 7 8 12 13 11 13 15 19 19 21 21 20 21 19 17 19 18 20 24
48 53 58 64 67 62 36 27 17 15 18 24 30 27 23 23 21 19 16 13 11 10 9 10 10 11 11 11 13 13 14 17 16 14 17 18 17 16 20 21 21 22 25 18
48 52 59 64 69 59 44 25 15 13 17 25 27 31 27 24 25 22 18 15 14 11 10 8 8 9 11 14 13 11 14 15 14 15 18 17 15 16 15 16 22 24 23 24
50 53 59 65 70 61 38 24 17 16 16 21 30 29 34 34 27 25 22 22 18 16 15 12 9 8 8 10 13 13 13 13 14 15 15 14 11 13 14 13 14 15 18 20
49 52 61 64 68 56 34 24 22 18 15 18 24 32 30 36 33 31 26 23 23 22 22 19 14 11 10 11 11 11 11 12 13 12 13 13 12 13 12 13 13 13 15 16
52 53 60 70 67 51 30 23 23 17 12 16 19 24 30 30 40 33 28 27 26 25 23 21 18 16 15 12 11 14 13 13 11 14 13 11 12 13 14 10 10 11 13 15
53 53 59 69 60 41 29 25 23 17 14 14 17 22 27 30 32 36 31 30 28 26 25 23 21 19 20 18 18 15 16 15 15 16 12 12 13 13 12 11 12 12 14 14
53 52 57 68 52 34 27 25 23 17 17 15 15 19 21 23 29 36 32 28 28 29 27 27 24 23 23 22 22 21 22 21 16 15 16 17 16 15 15 14 14 13 13 13
56 57 55 64 47 30 25 23 21 19 17 12 11 14 14 15 22 30 36 33 33 32 31 29 30 29 28 26 23 28 27 26 25 23 17 17 18 19 20 19 18 17 15 14
54 58 56 60 47 27 25 22 20 19 15 10 8 11 11 11 17 23 29 31 32 31 30 30 30 31 32 31 29 30 29 31 26 24 25 27 23 18 17 19 20 21 22 20
53 60 54 52 36 20 23 21 19 17 14 8 4 8 10 9 10 15 19 22 23 23 24 25 22 29 33 36 39 36 35 31 30 27 31 25 24 24 24 21 20 20 21 22
50 52 49 45 25 15 21 17 15 15 10 4 4 5 8 9 10 10 7 2 4 7 13 17 25 33 39 39 40 42 41 41 37 36 35 30 28 22 23 26 24 23 23 22
39 42 43 40 23 13 17 15 8 9 6 2 3 5 5 6 6 4 3 5 8 11 17 23 26 32 38 49 51 51 50 47 45 41 39 34 33 27 24 22 25 25 25 25
43 41 42 46 29 16 13 13 8 6 5 5 3 3 3 5 6 6 6 7 11 14 12 20 26 41 55 45 43 59 59 54 48 41 41 39 35 31 27 23 22 24 26 26
39 45 48 52 42 23 14 16 8 8 8 8 10 10 9 7 8 8 7 8 10 15 14 20 29 36 43 31 20 35 39 27 34 35 38 39 34 33 28 24 23 22 22 25
36 42 47 51 56 35 20 14 14 9 10 10 12 13 14 12 10 11 9 8 10 13 14 18 23 24 25 35 25 25 22 19 27 31 32 34 30 32 29 27 24 22 22 23
34 38 40 43 42 36 27 17 13 12 14 14 13 14 14 14 14 13 13 10 11 13 12 16 20 20 16 4 6 3 7 18 18 24 26 27 30 32 31 29 28 28 27 29
29 34 36 39 41 43 39 46 31 19 17 18 17 16 16 15 13 13 12 8 8 8 10 13 16 12 12 7 7 8 10 13 15 19 22 25 27 28 27 28 28 28 27 28
27 30 32 36 38 39 38 37 36 49 32 25 23 22 20 16 14 12 13 13 9 8 10 13 15 12 9 4 8 9 12 10 15 14 17 18 19 21 23 24 25 25 26 27
22 27 28 31 33 35 33 34 34 39 39 37 25 24 21 23 21 16 15 15 12 11 10 10 12 9 9 7 3 4 8 11 14 15 15 15 16 17 19 21 22 22 21 21
19 23 24 24 29 30 32 32 31 34 40 36 32 22 21 21 16 18 15 12 11 13 13 14 13 9 11 12 9 8 8 9 12 12 12 13 15 15 17 17 16 16 18 18
20 21 23 22 25 29 32 33 32 32 35 36 34 28 21 19 16 10 12 17 19 21 20 20 18 16 7 7 11 10 10 12 13 14 14 14 14 13 12 14 14 14 14 14
23 23 24 24 25 30 33 34 33 33 33 33 34 29 23 24 19 19 20 24 27 26 24 26 23 20 19 14 9 10 13 12 12 12 12 15 12 13 13 15 14 13 14 18
Wind_Direction
335 337 335 339 348 356 345 340 298 268 259 259 242 255 255 264 270 264 251 14 160 157 149 150 141 169 173 178 176 176 187 212 217 210 238 214 222 234 242 241 231 229 235 237
336 336 334 335 341 355 345 347 315 263 255 255 250 251 248 256 254 252 247 236 233 225 206 187 206 200 203 204 206 209 211 216 218 219 225 227 231 241 243 236 231 230 235 240
337 336 333 335 341 350 354 336 327 265 252 244 246 243 242 244 238 240 251 256 242 226 223 234 243 239 231 221 219 224 227 222 225 234 236 237 244 241 241 241 237 231 238 239
338 337 333 332 335 345 341 333 329 273 244 238 237 238 237 244 243 243 247 249 244 246 255 266 262 246 237 231 228 224 228 230 232 234 235 237 246 254 253 251 244 238 235 241
339 335 332 331 333 342 338 329 324 284 244 235 235 237 236 243 248 247 246 243 251 254 262 267 261 262 255 236 226 226 220 222 232 238 241 243 239 244 253 251 244 245 247 253
335 336 328 328 330 337 345 330 319 292 253 240 237 235 236 238 241 246 250 250 254 262 269 263 260 254 243 226 225 230 234 235 232 236 240 244 246 244 239 240 242 243 243 245
333 329 326 326 328 338 343 341 317 299 277 236 242 233 239 240 240 237 250 249 248 252 261 270 263 248 231 231 230 243 240 243 246 241 247 254 249 249 243 235 236 244 247 249
331 327 325 325 331 337 343 342 324 297 285 263 230 235 227 237 238 242 242 252 254 258 261 263 263 252 236 234 235 252 246 245 246 245 242 247 242 236 234 236 236 230 235 245
330 328 324 324 328 336 337 336 333 317 291 273 245 230 233 232 240 240 243 249 256 261 262 257 256 254 247 240 238 240 240 243 245 243 239 243 239 242 235 227 240 241 242 243
334 331 324 325 328 332 332 332 332 318 303 289 262 243 236 237 232 239 241 246 251 252 253 253 248 247 247 247 250 248 246 243 243 246 242 242 235 234 243 242 239 239 241 246
338 335 326 327 333 333 326 331 333 317 300 302 263 250 240 238 234 232 239 243 247 254 257 257 258 255 253 248 244 250 253 252 249 248 249 239 241 240 242 238 239 238 244 243
338 336 326 331 336 331 322 326 333 324 310 306 266 249 236 242 234 229 235 240 245 250 254 260 260 260 255 254 257 248 247 250 249 255 251 252 248 247 242 242 240 243 245 250
339 343 328 327 333 328 325 333 341 329 319 296 268 241 226 243 234 231 233 238 241 249 245 249 255 257 256 253 248 252 253 249 246 246 249 252 253 249 247 248 247 245 249 254
341 345 330 325 333 329 329 336 347 340 332 303 261 239 232 253 239 232 239 248 248 254 256 259 262 263 260 259 256 252 252 250 253 251 250 246 249 250 255 251 250 252 254 253
346 344 333 332 336 331 330 337 344 350 348 341 279 242 245 252 242 237 239 242 243 251 251 253 268 268 270 263 258 253 254 251 248 244 246 251 251 246 247 249 250 249 248 249
356 351 334 341 340 334 338 337 337 344 338 334 109 151 166 177 170 186 178 84 343 331 311 295 291 285 275 264 261 259 251 248 238 240 241 241 245 248 246 246 247 247 249 249
9 355 339 354 342 326 338 337 326 321 349 322 94 73 80 90 106 146 211 251 261 283 286 287 305 317 315 277 269 254 248 242 239 237 239 236 239 239 246 247 247 249 250 250
13 4 355 1 353 324 336 344 310 294 308 306 257 296 266 213 218 243 254 264 279 282 309 324 325 331 329 308 259 233 234 234 232 230 233 232 233 235 239 247 248 249 252 251
14 15 9 10 5 352 325 329 297 286 290 284 288 284 282 261 250 269 288 284 293 299 315 327 339 338 348 332 270 224 185 192 218 224 228 228 228 230 230 237 243 247 252 255
12 13 15 13 11 3 352 326 324 264 272 283 277 272 270 272 263 264 263 276 287 297 317 329 342 1 18 50 69 123 176 194 192 204 223 227 223 222 226 232 238 243 250 256
7 9 9 13 10 14 11 346 318 292 271 271 271 268 270 272 273 275 276 292 292 283 311 342 350 346 358 66 64 224 127 160 201 216 223 222 224 218 224 232 240 249 256 262
358 1 3 4 6 15 20 26 8 321 305 284 274 269 269 272 271 272 272 296 299 313 332 346 354 353 337 337 216 187 227 229 229 232 230 224 220 222 230 238 246 255 261 267
353 356 355 359 6 10 11 8 4 13 349 307 296 281 271 266 271 275 277 280 297 313 332 334 333 328 317 327 227 249 219 189 202 200 231 222 222 226 235 243 252 258 263 267
342 348 350 353 358 1 359 2 2 7 3 355 309 307 295 272 264 269 276 282 287 297 320 320 322 301 296 297 288 229 215 204 211 218 226 225 226 233 241 249 257 262 268 273
324 334 338 345 346 348 347 348 350 354 357 357 346 301 308 296 285 255 260 277 281 255 263 275 279 304 291 274 271 258 237 217 217 226 227 232 234 237 241 245 252 259 263 262
305 313 319 324 329 333 335 337 338 341 346 350 348 336 291 302 288 267 239 245 251 242 248 257 264 262 265 289 263 260 246 238 238 240 236 232 239 247 252 261 264 263 262 264
287 292 296 306 314 321 324 325 324 328 332 336 337 330 314 282 284 265 237 240 242 247 245 247 244 251 258 255 252 254 247 241 239 230 220 228 243 261 264 265 264 275 284 280